Location: Baia de Cri?
(46.1667°N, 22.7167°E)
Time: 22:47:12
(UTC+00:00)

Cosmos 1758 - Pass Details

Date: 15 January 2026
Orbit: 479 x 500 km, 82.5° (Epoch: 10 February)

Event Time Altitude Azimuth Distance (km) Brightness Sun altitude
Rises 05:01:41 0° 209° (SSW) 2,580 6.6 -11.2°
Reaches altitude 10° 05:03:57 10° 219° (SW) 1,699 5.6 -10.9°
Maximum altitude 05:07:21 33° 285° (WNW) 857 3.8 -10.3°
Drops below altitude 10° 05:10:44 10° 351° (N) 1,701 5.5 -9.7°
Sets 05:13:00 0° 1° (N) 2,584 6.5 -9.4°
